Madison, MN

11:52 PM CST on December 05, 2019 (GMT -0600)
Madison-Lac Qui Parle County

Weather History for KDXX - October, 2019

Change the Weather History Date:

Friday, October 4, 2019

  Actual Average (KAQP) Record (KAQP)
Temperature  
Mean Temperature 48 °F -  
Max Temperature 53 °F 62 °F 84 °F (2011)
Min Temperature 44 °F 37 °F 23 °F (2004)
Degree Days  
Heating Degree Days 16    
Moisture  
Dew Point 40 °F    
Average Humidity 74    
Maximum Humidity 93    
Minimum Humidity 58    
Precipitation  
Precipitation 0.05 in - - ()
Sea Level Pressure  
Sea Level Pressure 30.30 in    
Wind  
Wind Speed 8 mph (SE)    
Max Wind Speed 20 mph    
Max Gust Speed 24 mph    
Visibility 10 miles    
Events Rain , Thunderstorm    
Averages and records for this station are not official NWS values.
T = Trace of Precipitation, MM = Missing Value Source: NWS Daily Summary

Daily Weather History Graph

Daily Weather History Graph

Search for Another Location

Airport or City:

Astronomy

Oct. 04, 2019 Rise Set
Actual Time 7:26 AM CDT 6:59 PM CDT
Civil Twilight 6:56 AM CDT 7:29 PM CDT
Nautical Twilight 6:22 AM CDT 8:03 PM CDT
Astronomical Twilight 5:48 AM CDT 8:37 PM CDT
Moon 2:13 PM CDT (10/4) 11:15 PM CDT (10/4)
Length of Visible Light 12h 32m
Length of Day
11h 33m
Waxing Crescent, 40% of the Moon is Illuminated
Oct 4
Waxing Crescent
Oct 5
First Quarter
Oct 13
Full
Oct 21
Last Quarter
Oct 27
New

Hourly Weather History & Observations

Time (CDT) Temp. Windchill Dew Point Humidity Pressure Visibility Wind Dir Wind Speed Gust Speed Precip Events Conditions
12:15 AM 44.6 °F 42.2 °F 37.4 °F 76% 30.40 in 10.0 mi ENE 4.6 mph - N/A   Overcast
12:16 AM 44.6 °F 43.1 °F 37.4 °F 76% 30.40 in 10.0 mi NE 3.5 mph - N/A   Overcast
12:35 AM 44.6 °F - 39.2 °F 81% 30.40 in 10.0 mi Calm Calm - N/A   Overcast
12:40 AM 44.6 °F 43.1 °F 37.4 °F 76% 30.40 in 10.0 mi ENE 3.5 mph - N/A   Overcast
12:58 AM 44.6 °F - 37.4 °F 76% 30.40 in 10.0 mi Calm Calm - N/A   Overcast
1:15 AM 44.6 °F 42.2 °F 37.4 °F 76% 30.40 in 10.0 mi ENE 4.6 mph - N/A   Overcast
1:35 AM 44.6 °F 42.2 °F 37.4 °F 76% 30.41 in 10.0 mi ENE 4.6 mph - N/A   Overcast
1:36 AM 44.6 °F 42.2 °F 37.4 °F 76% 30.41 in 10.0 mi ENE 4.6 mph - N/A   Overcast
1:55 AM 44.6 °F 41.4 °F 37.4 °F 76% 30.41 in 10.0 mi ENE 5.8 mph - N/A   Overcast
1:56 AM 44.6 °F 42.2 °F 37.4 °F 76% 30.41 in 10.0 mi ENE 4.6 mph - N/A   Overcast
2:18 AM 44.6 °F - 37.4 °F 76% 30.41 in 10.0 mi Calm Calm - N/A   Overcast
2:37 AM 44.6 °F 41.4 °F 37.4 °F 76% 30.41 in 10.0 mi ESE 5.8 mph - N/A   Overcast
2:56 AM 44.6 °F 42.2 °F 39.2 °F 81% 30.42 in 10.0 mi SE 4.6 mph - N/A   Overcast
3:15 AM 44.6 °F 41.4 °F 37.4 °F 76% 30.42 in 10.0 mi SSE 5.8 mph - N/A   Overcast
3:16 AM 44.6 °F 41.4 °F 37.4 °F 76% 30.42 in 10.0 mi SSE 5.8 mph - N/A   Overcast
3:35 AM 44.6 °F 41.4 °F 37.4 °F 76% 30.42 in 10.0 mi SE 5.8 mph - N/A   Overcast
3:57 AM 44.6 °F 42.2 °F 37.4 °F 76% 30.41 in 10.0 mi SSE 4.6 mph - N/A   Overcast
4:16 AM 44.6 °F 41.4 °F 37.4 °F 76% 30.41 in 10.0 mi SSE 5.8 mph - N/A   Overcast
4:35 AM 44.6 °F 42.2 °F 37.4 °F 76% 30.42 in 10.0 mi South 4.6 mph - N/A   Overcast
4:36 AM 44.6 °F 42.2 °F 37.4 °F 76% 30.42 in 10.0 mi South 4.6 mph - N/A   Overcast
4:55 AM 44.6 °F - 37.4 °F 76% 30.42 in 10.0 mi Calm Calm - N/A   Overcast
4:56 AM 44.6 °F - 37.4 °F 76% 30.42 in 10.0 mi Calm Calm - N/A   Overcast
5:19 AM 44.6 °F 43.1 °F 37.4 °F 76% 30.42 in 10.0 mi South 3.5 mph - N/A   Overcast
5:36 AM 44.6 °F 43.1 °F 37.4 °F 76% 30.42 in 10.0 mi SSE 3.5 mph - N/A   Overcast
5:56 AM 44.6 °F 42.2 °F 37.4 °F 76% 30.42 in 10.0 mi South 4.6 mph - N/A   Overcast
6:15 AM 44.6 °F 42.2 °F 37.4 °F 76% 30.41 in 10.0 mi South 4.6 mph - N/A   Overcast
6:16 AM 44.6 °F 42.2 °F 37.4 °F 76% 30.41 in 10.0 mi South 4.6 mph - N/A   Overcast
6:35 AM 44.6 °F 43.1 °F 37.4 °F 76% 30.42 in 10.0 mi South 3.5 mph - N/A   Overcast
6:39 AM 44.6 °F 42.2 °F 37.4 °F 76% 30.42 in 10.0 mi South 4.6 mph - N/A   Overcast
6:58 AM 44.6 °F - 39.2 °F 81% 30.41 in 10.0 mi Calm Calm - N/A   Overcast
7:15 AM 44.6 °F - 39.2 °F 81% 30.41 in 10.0 mi Calm Calm - N/A   Overcast
7:35 AM 44.6 °F 43.1 °F 39.2 °F 81% 30.41 in 10.0 mi SE 3.5 mph - N/A   Overcast
7:36 AM 44.6 °F 43.1 °F 39.2 °F 81% 30.41 in 10.0 mi SE 3.5 mph - N/A   Overcast
7:55 AM 44.6 °F 42.2 °F 39.2 °F 81% 30.41 in 10.0 mi SE 4.6 mph - N/A   Overcast
8:19 AM 44.6 °F 41.4 °F 39.2 °F 81% 30.41 in 10.0 mi SE 5.8 mph - N/A   Overcast
8:37 AM 44.6 °F 40.7 °F 39.2 °F 81% 30.40 in 10.0 mi SSE 6.9 mph - N/A   Overcast
8:56 AM 44.6 °F 40.7 °F 39.2 °F 81% 30.40 in 10.0 mi SE 6.9 mph - N/A   Overcast
9:15 AM 46.4 °F 41.5 °F 39.2 °F 76% 30.40 in 10.0 mi SSE 10.4 mph - N/A   Overcast
9:16 AM 46.4 °F 41.9 °F 37.4 °F 71% 30.40 in 10.0 mi SSE 9.2 mph - N/A   Overcast
9:35 AM 46.4 °F 41.5 °F 39.2 °F 76% 30.40 in 10.0 mi SE 10.4 mph - N/A   Overcast
9:39 AM 46.4 °F 41.5 °F 39.2 °F 76% 30.40 in 10.0 mi SE 10.4 mph - N/A   Overcast
9:57 AM 46.4 °F 40.7 °F 37.4 °F 71% 30.40 in 10.0 mi SE 12.7 mph 17.3 mph N/A   Overcast
10:16 AM 48.2 °F - 37.4 °F 66% 30.39 in 10.0 mi SSE 16.1 mph - N/A   Overcast
10:35 AM 48.2 °F - 37.4 °F 66% 30.38 in 10.0 mi SSE 12.7 mph 19.6 mph N/A   Overcast
10:36 AM 48.2 °F - 37.4 °F 66% 30.38 in 10.0 mi SSE 15.0 mph 18.4 mph N/A   Overcast
10:55 AM 48.2 °F - 37.4 °F 66% 30.38 in 10.0 mi SSE 13.8 mph - N/A   Overcast
10:56 AM 48.2 °F - 37.4 °F 66% 30.38 in 10.0 mi SSE 13.8 mph 19.6 mph N/A   Overcast
11:19 AM 48.2 °F - 37.4 °F 66% 30.38 in 10.0 mi SSE 10.4 mph - N/A   Overcast
11:36 AM 48.2 °F - 37.4 °F 66% 30.38 in 10.0 mi SSE 13.8 mph 19.6 mph N/A   Overcast
11:55 AM 48.2 °F - 39.2 °F 71% 30.37 in 10.0 mi SSE 12.7 mph 17.3 mph N/A   Overcast
11:56 AM 48.2 °F - 39.2 °F 71% 30.37 in 10.0 mi SSE 12.7 mph 17.3 mph N/A   Overcast
12:15 PM 48.2 °F - 37.4 °F 66% 30.36 in 10.0 mi SSE 13.8 mph 18.4 mph N/A   Overcast
12:16 PM 48.2 °F - 37.4 °F 66% 30.36 in 10.0 mi SE 12.7 mph 18.4 mph N/A   Overcast
12:38 PM 48.2 °F - 39.2 °F 71% 30.35 in 10.0 mi SE 12.7 mph - N/A   Overcast
12:57 PM 50.0 °F - 39.2 °F 66% 30.34 in 10.0 mi SE 13.8 mph - N/A   Overcast
1:16 PM 50.0 °F - 39.2 °F 66% 30.33 in 10.0 mi SE 16.1 mph 20.7 mph N/A   Overcast
1:35 PM 51.8 °F - 39.2 °F 62% 30.32 in 10.0 mi South 15.0 mph 19.6 mph N/A   Overcast
1:36 PM 51.8 °F - 39.2 °F 62% 30.32 in 10.0 mi SSE 15.0 mph 19.6 mph N/A   Overcast
1:58 PM 51.8 °F - 39.2 °F 62% 30.30 in 10.0 mi SE 16.1 mph - N/A   Overcast
2:16 PM 51.8 °F - 39.2 °F 62% 30.29 in 10.0 mi SE 16.1 mph 20.7 mph N/A   Overcast
2:35 PM 53.6 °F - 41.0 °F 62% 30.28 in 10.0 mi SE 15.0 mph 20.7 mph N/A   Overcast
2:36 PM 53.6 °F - 41.0 °F 62% 30.28 in 10.0 mi SSE 12.7 mph 20.7 mph N/A   Overcast
2:55 PM 53.6 °F - 39.2 °F 58% 30.27 in 10.0 mi SSE 13.8 mph 19.6 mph N/A   Overcast
2:56 PM 53.6 °F - 39.2 °F 58% 30.27 in 10.0 mi SE 15.0 mph 19.6 mph N/A   Overcast
3:15 PM 51.8 °F - 39.2 °F 62% 30.26 in 10.0 mi SE 13.8 mph 21.9 mph N/A   Overcast
3:19 PM 51.8 °F - 39.2 °F 62% 30.26 in 10.0 mi SSE 16.1 mph 20.7 mph N/A   Overcast
3:38 PM 51.8 °F - 39.2 °F 62% 30.24 in 10.0 mi SE 18.4 mph 23.0 mph N/A   Overcast
3:55 PM 51.8 °F - 41.0 °F 67% 30.24 in 10.0 mi SE 17.3 mph 23.0 mph N/A   Overcast
4:15 PM 53.6 °F - 39.2 °F 58% 30.22 in 10.0 mi SE 16.1 mph 24.2 mph N/A   Mostly Cloudy
4:16 PM 53.6 °F - 41.0 °F 62% 30.22 in 10.0 mi SE 16.1 mph 24.2 mph N/A   Mostly Cloudy
4:35 PM 51.8 °F - 41.0 °F 67% 30.21 in 10.0 mi ESE 18.4 mph 23.0 mph N/A   Scattered Clouds
4:58 PM 53.6 °F - 41.0 °F 62% 30.21 in 10.0 mi SE 12.7 mph 23.0 mph N/A   Mostly Cloudy
5:16 PM 51.8 °F - 41.0 °F 67% 30.20 in 10.0 mi SE 19.6 mph 24.2 mph N/A   Mostly Cloudy
5:35 PM 53.6 °F - 41.0 °F 62% 30.19 in 10.0 mi SE 16.1 mph - N/A   Mostly Cloudy
5:55 PM 51.8 °F - 41.0 °F 67% 30.18 in 10.0 mi SE 16.1 mph 23.0 mph N/A   Mostly Cloudy
5:56 PM 51.8 °F - 41.0 °F 67% 30.18 in 10.0 mi SE 17.3 mph 23.0 mph N/A   Mostly Cloudy
6:15 PM 51.8 °F - 41.0 °F 67% 30.18 in 10.0 mi SE 16.1 mph - N/A   Mostly Cloudy
6:20 PM 51.8 °F - 41.0 °F 67% 30.18 in 10.0 mi SE 16.1 mph 19.6 mph N/A   Mostly Cloudy
6:37 PM 51.8 °F - 41.0 °F 67% 30.18 in 10.0 mi SE 13.8 mph 17.3 mph N/A   Overcast
6:55 PM 51.8 °F - 41.0 °F 67% 30.18 in 10.0 mi SE 11.5 mph - N/A   Overcast
7:15 PM 51.8 °F - 42.8 °F 71% 30.16 in 10.0 mi SE 12.7 mph - N/A   Overcast
7:35 PM 51.8 °F - 42.8 °F 71% 30.15 in 10.0 mi SE 13.8 mph 17.3 mph N/A   Overcast
7:36 PM 51.8 °F - 42.8 °F 71% 30.15 in 10.0 mi SE 15.0 mph - N/A   Overcast
7:58 PM 48.2 °F - 44.6 °F 87% 30.13 in 10.0 mi ESE 15.0 mph - N/A Rain Light Rain
8:17 PM 48.2 °F - 44.6 °F 87% 30.13 in 10.0 mi ESE 11.5 mph 19.6 mph N/A Rain Light Rain
8:35 PM 48.2 °F - 44.6 °F 87% 30.12 in 10.0 mi ESE 12.7 mph - N/A Rain Light Rain
8:36 PM 48.2 °F - 44.6 °F 87% 30.12 in 10.0 mi ESE 11.5 mph - N/A Rain Light Rain
8:55 PM 48.2 °F - 44.6 °F 87% 30.12 in 10.0 mi ESE 15.0 mph 20.7 mph N/A Rain Light Rain
9:18 PM 48.2 °F - 44.6 °F 87% 30.11 in 10.0 mi ESE 16.1 mph - N/A   Overcast
9:37 PM 48.2 °F - 44.6 °F 87% 30.10 in 10.0 mi ESE 15.0 mph 19.6 mph N/A   Overcast
9:55 PM 48.2 °F - 44.6 °F 87% 30.10 in 10.0 mi ESE 13.8 mph 19.6 mph N/A   Overcast
9:56 PM 48.2 °F - 44.6 °F 87% 30.10 in 10.0 mi SE 16.1 mph 19.6 mph N/A   Overcast
10:15 PM 48.2 °F - 44.6 °F 87% 30.09 in 10.0 mi SE 12.7 mph - N/A   Overcast
10:16 PM 48.2 °F - 44.6 °F 87% 30.09 in 10.0 mi SE 13.8 mph - N/A   Overcast
10:39 PM 48.2 °F - 46.4 °F 93% 30.08 in 10.0 mi SE 13.8 mph 18.4 mph N/A Rain Light Rain
10:56 PM 48.2 °F - 46.4 °F 93% 30.06 in 10.0 mi ESE 17.3 mph - N/A Rain , Thunderstorm Light Thunderstorms and Rain
11:15 PM 48.2 °F - 46.4 °F 93% 30.05 in 7.0 mi ESE 19.6 mph 24.2 mph N/A Rain Heavy Rain
11:16 PM 48.2 °F - 46.4 °F 93% 30.05 in 7.0 mi ESE 16.1 mph 24.2 mph 0.05 in Rain Heavy Rain
11:35 PM 48.2 °F - 46.4 °F 93% 30.04 in 7.0 mi ESE 15.0 mph 19.6 mph N/A Rain Rain
11:36 PM 48.2 °F - 46.4 °F 93% 30.04 in 7.0 mi ESE 16.1 mph 21.9 mph 0.02 in Rain Rain
11:58 PM 48.2 °F - 46.4 °F 93% 30.01 in 10.0 mi ESE 19.6 mph - N/A Thunderstorm Overcast